Regional Weather Roundup
Issued by NWS Midland/Odessa, TX

Skip options and go directly to product.
Home | Oldest Version | Previous Version | Current Version | All | Text Only | Save Text | Print | Product List | Glossary On

Skip product version selection by date and time.   
758
ASUS44 KMAF 271701
RWRMAF
MIDLAND AREA WEATHER ROUNDUP
NATIONAL WEATHER SERVICE MIDLAND TX
1100 AM CST TUE JAN 27 2015

...IN SOUTHWEST TEXAS AND SOUTHEAST NEW MEXICO...

CITY           SKY/WX    TMP DP  RH WIND       PRES   REMARKS
ALPINE         SUNNY     64  36  36 SW7       30.39R
ANDREWS        FAIR      59  35  40 N3        30.28S
ARTESIA        SUNNY     50  36  57 N5        30.32S
BIG SPRING     SUNNY     54  38  56 SW3       30.29R
CARLSBAD       SUNNY     56  34  43 N7        30.30S
DRYDEN           N/A     67  35  30 W6        30.26S
FORT STOCKTON  SUNNY     59  37  44 W7        30.31R
GUAD PASS      NOT AVBL
HOBBS          SUNNY     63  36  36 CALM      30.30R
MARFA          SUNNY     61  34  36 S7        30.38R
MIDLAND AIRPK  SUNNY     56  37  49 CALM      30.28S
MIDLAND INTL   SUNNY     59  38  45 NE3       30.28S
ODESSA         SUNNY     61  36  39 CALM      30.29R
PECOS          SUNNY     53  38  56 NW6       30.31S
PRESIDIO       FAIR      53  40  60 MISG      30.36R
SEMINOLE       SUNNY     59  36  41 CALM      30.29S
SNYDER         MOSUNNY  N/A N/A N/A CALM      30.25R
WINK           SUNNY     57  32  38 CALM      30.29R
$$
...OTHER STATIONS IN TEXAS...

CITY           SKY/WX    TMP DP  RH WIND       PRES   REMARKS
ABILENE        SUNNY     64  37  36 W3        30.24S
AMARILLO       SUNNY     67  31  26 W7        30.24S
AUSTIN         MOSUNNY   68  40  35 NW10      30.20S
BROWNSVILLE    SUNNY     72  48  42 SW10      30.25S
CORPUS CHRISTI MOSUNNY   69  45  41 W13       30.23F
DALLAS FTW     MOSUNNY   63  39  41 N6        30.19R
DEL RIO        SUNNY     63  41  44 W8        30.25S
EL PASO        MOSUNNY   54  31  41 CALM      30.35R
HOUSTON INT    MOSUNNY   67  41  38 W5        30.17S
LUBBOCK        MOSUNNY   57  37  47 W8        30.27R
SAN ANGELO     SUNNY     58  40  51 W9        30.25R
SAN ANTONIO    MOSUNNY   71  39  31 W6        30.22S
WACO           SUNNY     65  41  41 N7        30.21R
WICHITA FALLS  NOT AVBL
$$
...OTHER LOCATIONS IN NEW MEXICO...

CITY           SKY/WX    TMP DP  RH WIND       PRES   REMARKS
ALAMAGORDO     SUNNY     48  32  53 CALM      30.37R
ALBUQUERQUE    MOSUNNY   42  28  57 CALM      30.38S
CANNON AFB     SUNNY     60  31  33 W7        30.29R
CLOVIS         SUNNY     61  34  36 W9        30.29S
HOLLOMAN AFB   SUNNY     50  35  56 CALM      30.35R
ROSWELL        SUNNY     52  33  48 CALM      30.31R
RUIDOSO        SUNNY     52  21  30 CALM      30.40S
SANTA FE       SUNNY     43  25  49 N17       30.37S WCI  35
TRUTH OR CONSE SUNNY     50  30  46 S3        30.36R
TUCUMCARI      PTSUNNY   50  35  56 W12       30.27R
$$

USA.gov is the U.S. government's official web portal to all federal, state and local government web resources and services.